Location: ??
(35.5990°N, 139.7298°E)
Time: 08:51:33
(UTC+00:00)

Terra - Pass Details

Date: 07 June 2020
Orbit: 701 x 703 km, 98.2° (Epoch: 06 July)

Event Time Altitude Azimuth Distance (km) Brightness Sun altitude
Exits shadow 11:52:40 23° 85° (E) 1,486 3.2 -19.4°
Maximum altitude 11:53:30 24° 69° (ENE) 1,443 3.2 -19.5°
Drops below altitude 10° 11:57:17 10° 16° (NNE) 2,175 4.8 -20.0°
Sets 11:59:53 0° 3° (N) 3,097 5.9 -20.4°
